Regional Weather Roundup
Issued by NWS

Home | Current Version | Previous Version | Graphics & Text | Print | Product List | Glossary On
Versions: 1 2 3 4 5 6 7 8 9 10 11 12 13 14 15 16 17 18 19 20 21 22 23 24 25 26 27 28 29 30 31 32 33 34 35 36 37 38 39 40 41 42 43 44 45 46 47 48 49 50
000
ASUS43 KDMX 192101
RWRIA

WEATHER ROUNDUP FOR IOWA
NATIONAL WEATHER SERVICE DES MOINES IA
300 PM CST SUN FEB 19 2017

NOTE: "FAIR" INDICATES FEW OR NO CLOUDS BELOW 12,000 FEET WITH NO
SIGNIFICANT WEATHER AND/OR OBSTRUCTIONS TO VISIBILITY.

* - THESE STATIONS ARE NOT NWS STATIONS...THUS NOT UNDER NWS
QUALITY CONTROL.  THEY ALSO DO NOT REPORT WEATHER SUCH
AS PRECIPITATION OR FOG.

IAZ001>003-012>014-020>022-031>034-043>046-192200-
   NORTHWEST IOWA

CITY           SKY/WX    TMP DP  RH WIND       PRES   REMARKS
CARROLL *      MOSUNNY   68  50  52 S17G25    29.83S
CHEROKEE *     MOSUNNY   65  49  56 S17G24    29.79F
DENISON *      MOSUNNY   66  48  52 S14G23    29.80F
LE MARS *      CLOUDY    64  52  63 S15G29    29.76F
SHELDON *      MOSUNNY   63  55  77 S20       29.75F
SIOUX CITY     MOSUNNY   66  52  60 S18G29    29.76F
SPENCER        CLOUDY    64  53  67 S22       29.80F
STORM LAKE *   MOSUNNY   64  50  59 S22       29.81F
$$

IAZ055>058-069>071-079>083-090>094-192200-
   SOUTHWEST IOWA

CITY           SKY/WX    TMP DP  RH WIND       PRES   REMARKS
ATLANTIC *     MOSUNNY   68  48  49 S14G22    29.84F
CLARINDA *     CLOUDY    72  50  46 S17         N/A
COUNCIL BLFS * SUNNY     68  48  49 S17       29.82S
CRESTON *      CLOUDY    72  48  43 S22       29.89S
HARLAN  *      PTSUNNY   68  50  52 S17G24    29.86S
LAMONI         MOSUNNY   71  47  42 S22G30    29.89F
RED OAK *      CLOUDY    70  50  49 S21       29.84F
SHENANDOAH *   SUNNY     72  52  49 S21       29.84F
$$

IAZ047>049-059>061-072>074-084-192200-
   CENTRAL IOWA

CITY           SKY/WX    TMP DP  RH WIND       PRES   REMARKS
AMES           MOSUNNY   70  49  47 S20G26    29.87F
ANKENY *       CLOUDY    72  48  43 S18G25    29.89R
BOONE *        MOSUNNY   68  50  52 S22       29.86S
CHARITON *     MOSUNNY   70  48  46 S17       29.90S
DES MOINES     CLOUDY    73  46  38 S18       29.89S
GRINNELL*      CLOUDY    70  47  43 S16       29.93F
KNOXVILLE *    MOSUNNY   72  46  40 S13G18    29.89F
MARSHALLTOWN   MOSUNNY   68  49  50 S17       29.89F
NEWTON *       CLOUDY    70  46  43 S18       29.89F
PELLA *        MOSUNNY   72  46  39 S13G18    29.92F
PERRY *          N/A     65  45  47 S20G28    29.86S
$$

IAZ004>006-015-016-023>025-035-036-192200-
   NORTH CENTRAL IOWA

CITY           SKY/WX    TMP DP  RH WIND       PRES   REMARKS
ALGONA *       PTSUNNY   63  54  72 S18G25    29.84F
CLARION *      PTSUNNY   63  57  82 S17       29.87R
ESTHERVILLE    PTSUNNY   61  54  77 S18       29.81F
FORT DODGE *   CLOUDY    66  48  52 S13G24    29.86S
MASON CITY     MOSUNNY   58  50  75 SE15      29.89F
FOREST CITY *    N/A     59  50  72 SE12      29.88R
IOWA FALLS *     N/A     67  52  58 SE17      29.89F
$$

IAZ007>011-017>019-026>030-037>042-050>054-066-192200-
   NORTHEAST IOWA

CITY           SKY/WX    TMP DP  RH WIND       PRES   REMARKS
CEDAR RAPIDS   CLOUDY    68  43  40 SE13      29.95R
CHARLES CITY * MOSUNNY   61  48  63 SE14      29.92S
CLINTON *      MOSUNNY   67  41  38 SE8       30.00S
DECORAH *      SUNNY     59  43  55 SE7G15    29.95R
DUBUQUE        SUNNY     64  36  35 SE10      29.99S
MONTICELLO *   MOSUNNY   66  41  39 SE13      29.97R
OELWEIN *      CLOUDY    63  46  55 SE14      29.95S
WATERLOO       MOSUNNY   66  44  45 SE12      29.92F
$$

IAZ064-065-067-068-078-192200-
   EAST CENTRAL IOWA

CITY           SKY/WX    TMP DP  RH WIND       PRES   REMARKS
DAVENPORT      CLOUDY    70  37  29 S12       29.98F
IOWA CITY      CLOUDY    71  43  36 SE10      29.97S
MUSCATINE *    SUNNY     72  43  35 S10       29.97S
QUAD CITIES    MOSUNNY   74  37  26 S9        29.97S
$$

IAZ062-063-075>077-085>089-095>099-192200-
   SOUTHEAST IOWA

CITY           SKY/WX    TMP DP  RH WIND       PRES   REMARKS
BURLINGTON     SUNNY     72  48  42 S10       29.97F
FAIRFIELD *    SUNNY     72  45  37 S14       29.95S
KEOKUK *       SUNNY     72  46  40 SE10      29.97S
OTTUMWA        MOSUNNY   74  45  35 S14       29.93S
WASHINGTON *   SUNNY     72  46  40 S13       29.96S
$$

ABBREVIATIONS USED IN REMARKS
   TC - TEMPERATURES IN CELSIUS
  WCI - WIND CHILL INDEX
   HX - HEAT INDEX
  VSB - VISIBILITY
$$




USA.gov is the U.S. government's official web portal to all federal, state and local government web resources and services.